East Bay Causeway, FL current weather conditions

sailwx.info

Wind from 023 at 8 knots gusting 12

Last reported at 2019-Nov-14 05:42 UTC.
Time now 2019-Nov-14 06:36 UTC

Location: N 27°56' W 082°26'.
View on Google Maps.

See reports from other nearby stations

  
Tides and Currents Weather Stations Pressure Air Temp Water Temp Dewpoint Dewpoint Depression Visibility Wind Speed Wind Dir Waves Ship Positions
date/time (UTC)wind fromknots sea level pressurealtimeterstation pressurevisibilityair tempwater tempwave heightnotes
2019-Nov-14 05:42 023 8 gusting 12
2019-Nov-14 05:30 023 8 gusting 12
2019-Nov-14 05:24 026 6 gusting 11
2019-Nov-14 05:18 024 7 gusting 11
2019-Nov-14 05:12 026 8 gusting 11
2019-Nov-14 05:06 025 7 gusting 11
2019-Nov-14 05:00 026 6 gusting 10
2019-Nov-14 04:54 026 6 gusting 8
2019-Nov-14 04:48 026 6 gusting 9
2019-Nov-14 04:42 024 6 gusting 8
2019-Nov-14 04:36 026 6 gusting 11
2019-Nov-14 04:24 022 6 gusting 12
2019-Nov-14 04:18 024 8 gusting 12
2019-Nov-14 04:12 025 6 gusting 9
2019-Nov-14 04:06 022 7 gusting 11
2019-Nov-14 04:00 026 6 gusting 11
2019-Nov-14 03:54 024 8 gusting 10
2019-Nov-14 03:48 026 8 gusting 13
2019-Nov-14 03:42 029 7 gusting 11
2019-Nov-14 03:30 026 7 gusting 12
2019-Nov-14 03:24 024 7 gusting 11
2019-Nov-14 03:18 027 7 gusting 11
2019-Nov-14 03:12 025 6 gusting 9
2019-Nov-14 03:00 025 7 gusting 11
2019-Nov-14 02:54 025 6 gusting 11
2019-Nov-14 02:42 025 8 gusting 11
2019-Nov-14 02:36 024 6 gusting 11
2019-Nov-14 02:30 027 7 gusting 11
2019-Nov-14 02:24 028 6 gusting 9
2019-Nov-14 02:12 024 6 gusting 11
2019-Nov-14 02:06 032 5 gusting 9
2019-Nov-14 01:54 026 6 gusting 10
2019-Nov-14 01:48 029 6 gusting 8
2019-Nov-14 01:36 032 6 gusting 13
2019-Nov-14 01:30 032 6 gusting 11
2019-Nov-14 01:24 028 8 gusting 12
2019-Nov-14 01:12 030 7 gusting 13
2019-Nov-14 01:06 031 8 gusting 12
2019-Nov-14 01:00 031 7 gusting 10
2019-Nov-14 00:54 029 7 gusting 11
2019-Nov-14 00:48 030 8 gusting 12
2019-Nov-14 00:42 026 9 gusting 13
2019-Nov-14 00:36 025 7 gusting 13
2019-Nov-14 00:30 025 8 gusting 13
2019-Nov-14 00:24 028 8 gusting 12
2019-Nov-14 00:12 028 8 gusting 12
2019-Nov-14 00:06 028 9 gusting 13
2019-Nov-14 00:00 031 9 gusting 13
2019-Nov-13 23:54 027 9 gusting 13
2019-Nov-13 23:42 032 7 gusting 12
2019-Nov-13 23:36 030 8 gusting 14
2019-Nov-13 23:30 026 9 gusting 13
2019-Nov-13 23:24 025 8 gusting 15
2019-Nov-13 23:18 029 11 gusting 13
2019-Nov-13 23:06 031 8 gusting 14
2019-Nov-13 22:54 026 11 gusting 17
2019-Nov-13 22:48 025 13 gusting 17
2019-Nov-13 22:42 031 10 gusting 18
2019-Nov-13 22:36 032 10 gusting 13
2019-Nov-13 22:24 034 11 gusting 18
2019-Nov-13 22:18 030 10 gusting 19
2019-Nov-13 22:12 030 13 gusting 18
2019-Nov-13 22:00 035 11 gusting 13
2019-Nov-13 21:54 029 11 gusting 17
2019-Nov-13 21:42 035 10 gusting 14
2019-Nov-13 21:36 029 12 gusting 16
2019-Nov-13 21:30 031 9 gusting 14
2019-Nov-13 21:24 036 8 gusting 15
2019-Nov-13 21:18 032 11 gusting 15
2019-Nov-13 21:12 036 9 gusting 13
2019-Nov-13 21:06 034 11 gusting 17
2019-Nov-13 21:00 033 13 gusting 18
2019-Nov-13 20:54 030 11 gusting 17
2019-Nov-13 20:48 029 13 gusting 17
2019-Nov-13 20:36 031 9 gusting 17
2019-Nov-13 20:30 028 10 gusting 15
2019-Nov-13 20:24 034 8 gusting 13
2019-Nov-13 20:18 031 9 gusting 15
2019-Nov-13 20:12 028 11 gusting 19
2019-Nov-13 20:00 032 9 gusting 17
2019-Nov-13 19:54 028 13 gusting 17
2019-Nov-13 19:48 025 11 gusting 14
2019-Nov-13 19:42 038 8 gusting 13
2019-Nov-13 19:36 031 11 gusting 16
2019-Nov-13 19:30 031 12 gusting 15
2019-Nov-13 19:24 030 9 gusting 14
2019-Nov-13 19:18 035 8 gusting 15
2019-Nov-13 19:12 032 10 gusting 15
2019-Nov-13 19:00 031 8 gusting 13
2019-Nov-13 18:54 032 11 gusting 15
2019-Nov-13 18:48 035 10 gusting 14
2019-Nov-13 18:36 023 11 gusting 16
2019-Nov-13 18:30 036 6 gusting 11
2019-Nov-13 18:24 037 7 gusting 13
2019-Nov-13 18:18 033 8 gusting 16
2019-Nov-13 18:12 021 8 gusting 13
2019-Nov-13 18:06 031 10 gusting 14
2019-Nov-13 18:00 028 11 gusting 13
2019-Nov-13 17:54 027 11 gusting 15
2019-Nov-13 17:48 034 9 gusting 16
2019-Nov-13 17:42 029 11 gusting 16
2019-Nov-13 17:30 029 9 gusting 14
2019-Nov-13 17:24 031 8 gusting 17
2019-Nov-13 17:12 025 12 gusting 18
2019-Nov-13 17:06 027 10 gusting 15
2019-Nov-13 17:00 019 11 gusting 17
2019-Nov-13 16:48 024 11 gusting 16
2019-Nov-13 16:36 019 9 gusting 13
2019-Nov-13 16:30 033 7 gusting 13
2019-Nov-13 16:24 029 12 gusting 16
2019-Nov-13 16:12 026 11 gusting 15
2019-Nov-13 16:06 029 9 gusting 15
2019-Nov-13 16:00 023 11 gusting 16
2019-Nov-13 15:54 025 8 gusting 14
2019-Nov-13 15:48 027 8 gusting 14
2019-Nov-13 15:42 018 10 gusting 14
2019-Nov-13 15:36 020 11 gusting 19
2019-Nov-13 15:24 021 10 gusting 15
2019-Nov-13 15:18 025 11 gusting 16
2019-Nov-13 15:12 019 13 gusting 17
2019-Nov-13 15:00 018 12 gusting 16
2019-Nov-13 14:54 017 10 gusting 16
2019-Nov-13 14:48 012 12 gusting 16
2019-Nov-13 14:42 021 9 gusting 16
2019-Nov-13 14:36 014 12 gusting 16
2019-Nov-13 14:24 030 10 gusting 15
2019-Nov-13 14:18 024 10 gusting 17
2019-Nov-13 14:06 020 13 gusting 19
2019-Nov-13 14:00 016 12 gusting 17
2019-Nov-13 13:54 018 11 gusting 18
2019-Nov-13 13:48 017 13 gusting 18
2019-Nov-13 13:42 019 9 gusting 15
2019-Nov-13 13:36 015 13 gusting 17
2019-Nov-13 13:30 022 11 gusting 17
2019-Nov-13 13:24 018 12 gusting 17
2019-Nov-13 13:18 015 11 gusting 16
2019-Nov-13 13:06 010 12 gusting 15
2019-Nov-13 12:54 016 11 gusting 15
2019-Nov-13 12:48 013 10 gusting 13
2019-Nov-13 12:42 019 10 gusting 16
2019-Nov-13 12:36 017 8 gusting 14
2019-Nov-13 12:30 016 12 gusting 15
2019-Nov-13 12:18 015 9 gusting 13
2019-Nov-13 12:06 017 10 gusting 14
2019-Nov-13 11:54 019 9 gusting 14
2019-Nov-13 11:48 017 11 gusting 17
2019-Nov-13 11:36 012 10 gusting 15
2019-Nov-13 11:30 011 12 gusting 15
2019-Nov-13 11:24 006 12 gusting 15
2019-Nov-13 11:12 018 9 gusting 14
2019-Nov-13 11:00 014 11 gusting 16
2019-Nov-13 10:54 021 11 gusting 16
2019-Nov-13 10:48 014 8 gusting 14
2019-Nov-13 10:42 018 9 gusting 18
2019-Nov-13 10:36 015 12 gusting 16
2019-Nov-13 10:24 017 10 gusting 17
2019-Nov-13 10:18 011 13 gusting 16
2019-Nov-13 10:12 014 7 gusting 15
2019-Nov-13 10:06 021 9 gusting 18
2019-Nov-13 10:00 018 11 gusting 17
2019-Nov-13 09:48 021 12 gusting 15
2019-Nov-13 09:42 016 9 gusting 14
2019-Nov-13 09:36 016 10 gusting 14
2019-Nov-13 09:30 016 10 gusting 14
2019-Nov-13 09:24 022 8 gusting 13
2019-Nov-13 09:18 018 9 gusting 15
2019-Nov-13 09:12 019 10 gusting 15
2019-Nov-13 09:06 023 12 gusting 16
2019-Nov-13 09:00 024 8 gusting 15
2019-Nov-13 08:54 020 10 gusting 15
2019-Nov-13 08:48 020 14 gusting 20
2019-Nov-13 08:42 019 11 gusting 19
2019-Nov-13 08:30 021 11 gusting 19
2019-Nov-13 08:18 014 12 gusting 18
2019-Nov-13 08:12 022 13 gusting 18
2019-Nov-13 08:06 020 12 gusting 16
2019-Nov-13 07:54 015 12 gusting 19
2019-Nov-13 07:48 015 13 gusting 17
2019-Nov-13 07:42 014 12 gusting 18
2019-Nov-13 07:30 014 12 gusting 19
2019-Nov-13 07:24 015 12 gusting 19
2019-Nov-13 07:18 009 13 gusting 20
2019-Nov-13 07:12 014 12 gusting 19
2019-Nov-13 07:06 010 15 gusting 19
2019-Nov-13 07:00 004 16 gusting 22
2019-Nov-13 06:54 009 14 gusting 19
2019-Nov-13 06:42 007 12 gusting 18
2019-Nov-13 06:36 008 13 gusting 18
2019-Nov-13 06:24 001 11 gusting 15
2019-Nov-13 06:18 003 11 gusting 15
2019-Nov-13 06:12 009 9 gusting 12
2019-Nov-13 06:06 008 8 gusting 13
2019-Nov-13 06:00 016 9 gusting 14
2019-Nov-13 05:54 015 8 gusting 14
2019-Nov-13 05:42 015 11 gusting 14
2019-Nov-13 05:36 017 10 gusting 15
2019-Nov-13 05:30 011 10 gusting 13
2019-Nov-13 05:18 351 8 gusting 13
2019-Nov-13 05:12 344 8 gusting 14
2019-Nov-13 05:00 338 9 gusting 13
2019-Nov-13 04:48 308 6 gusting 13
2019-Nov-13 04:42 305 2 gusting 6
2019-Nov-13 04:36 297 2 gusting 5
2019-Nov-13 04:30 314 3 gusting 6
2019-Nov-13 04:24 321 4 gusting 8
2019-Nov-13 04:18 325 5 gusting 8
2019-Nov-13 04:06 334 3 gusting 6
2019-Nov-13 03:54 325 2 gusting 6
2019-Nov-13 03:48 348 4 gusting 6
2019-Nov-13 03:42 328 3 gusting 4
2019-Nov-13 03:30 326 1 gusting 3
2019-Nov-13 03:24 349 0 gusting 5
2019-Nov-13 03:18 350 2 gusting 5
2019-Nov-13 03:12 351 3 gusting 6
2019-Nov-13 03:06 002 3 gusting 6
2019-Nov-13 02:54 342 3 gusting 7
2019-Nov-13 02:48 349 5 gusting 7
2019-Nov-13 02:42 343 3 gusting 6
2019-Nov-13 02:36 332 6 gusting 9
2019-Nov-13 02:30 327 6 gusting 13
2019-Nov-13 02:24 315 5 gusting 9
2019-Nov-13 02:18 315 4 gusting 8
2019-Nov-13 02:12 314 4 gusting 9
2019-Nov-13 02:00 326 6 gusting 12
2019-Nov-13 01:54 336 6 gusting 10
2019-Nov-13 01:30 326 4 gusting 9
2019-Nov-13 01:24 334 6 gusting 10
2019-Nov-13 01:12 331 6 gusting 8
2019-Nov-13 01:00 340 6 gusting 8
2019-Nov-13 00:54 330 4 gusting 9
2019-Nov-13 00:48 332 7 gusting 11
2019-Nov-13 00:36 332 6 gusting 9
2019-Nov-13 00:30 343 5 gusting 9
2019-Nov-13 00:24 351 6 gusting 9
2019-Nov-13 00:18 338 4 gusting 7
2019-Nov-13 00:12 340 5 gusting 8
2019-Nov-13 00:00 339 7 gusting 12
2019-Nov-12 23:54 338 7 gusting 11
2019-Nov-12 23:36 327 6 gusting 10
2019-Nov-12 23:30 336 6 gusting 12
2019-Nov-12 23:24 331 6 gusting 12
2019-Nov-12 23:12 329 7 gusting 13
2019-Nov-12 23:06 312 8 gusting 12
2019-Nov-12 23:00 302 4 gusting 10
2019-Nov-12 22:48 214 4 gusting 6
2019-Nov-12 22:36 221 3 gusting 5
2019-Nov-12 22:24 239 4 gusting 6
2019-Nov-12 22:18 222 4 gusting 6
2019-Nov-12 22:12 224 4 gusting 7
2019-Nov-12 22:06 252 5 gusting 6
2019-Nov-12 22:00 227 5 gusting 7
2019-Nov-12 21:54 230 6 gusting 7
2019-Nov-12 21:48 223 4 gusting 8
2019-Nov-12 21:42 232 6 gusting 7
2019-Nov-12 21:36 228 5 gusting 8
2019-Nov-12 21:24 228 7 gusting 9
2019-Nov-12 21:18 230 7 gusting 10
2019-Nov-12 21:12 248 7 gusting 10
2019-Nov-12 21:06 237 7 gusting 12
2019-Nov-12 21:00 246 6 gusting 11
2019-Nov-12 20:54 226 8 gusting 11
2019-Nov-12 20:42 228 9 gusting 13
2019-Nov-12 20:36 221 10 gusting 13
2019-Nov-12 20:30 232 7 gusting 12
2019-Nov-12 20:24 218 9 gusting 13
2019-Nov-12 20:18 264 8 gusting 13
2019-Nov-12 20:12 235 8 gusting 11
2019-Nov-12 20:06 234 7 gusting 12
2019-Nov-12 20:00 220 10 gusting 14
2019-Nov-12 19:54 232 8 gusting 12
2019-Nov-12 19:48 243 7 gusting 11
2019-Nov-12 19:42 237 7 gusting 12
2019-Nov-12 19:36 229 9 gusting 12
2019-Nov-12 19:30 258 9 gusting 15
2019-Nov-12 19:18 255 6 gusting 13
2019-Nov-12 19:12 238 9 gusting 11
2019-Nov-12 19:00 219 7 gusting 13
2019-Nov-12 18:54 238 7 gusting 13
2019-Nov-12 18:48 225 6 gusting 11
2019-Nov-12 18:36 237 6 gusting 9
2019-Nov-12 18:30 231 6 gusting 9
2019-Nov-12 18:18 169 6 gusting 11
2019-Nov-12 18:12 185 7 gusting 13
2019-Nov-12 18:06 148 9 gusting 11
2019-Nov-12 18:00 164 7 gusting 10
2019-Nov-12 17:54 159 6 gusting 9
2019-Nov-12 17:48 158 8 gusting 11
2019-Nov-12 17:42 163 6 gusting 10
2019-Nov-12 17:36 146 8 gusting 10
2019-Nov-12 17:30 139 8 gusting 11
2019-Nov-12 17:24 132 8 gusting 12
2019-Nov-12 17:18 127 8 gusting 11
2019-Nov-12 17:12 133 8 gusting 10
2019-Nov-12 17:00 147 8 gusting 10
2019-Nov-12 16:54 162 7 gusting 10
2019-Nov-12 16:42 157 6 gusting 9
2019-Nov-12 16:30 151 7 gusting 10
2019-Nov-12 16:18 155 7 gusting 10
2019-Nov-12 16:12 152 6 gusting 9
2019-Nov-12 16:06 145 6 gusting 7
2019-Nov-12 16:00 124 3 gusting 5
2019-Nov-12 15:54 126 4 gusting 5
2019-Nov-12 15:48 132 4 gusting 6
2019-Nov-12 15:42 135 5 gusting 6
2019-Nov-12 15:36 151 4 gusting 6
2019-Nov-12 15:30 142 5 gusting 6
2019-Nov-12 15:24 133 5 gusting 6
2019-Nov-12 15:18 135 5 gusting 6
2019-Nov-12 15:12 135 5 gusting 6
2019-Nov-12 15:00 133 5 gusting 6
2019-Nov-12 14:54 126 6 gusting 6
2019-Nov-12 14:42 131 6 gusting 7
2019-Nov-12 14:30 145 5 gusting 6
2019-Nov-12 14:18 145 6 gusting 6
2019-Nov-12 14:06 144 3 gusting 4
2019-Nov-12 14:00 120 5 gusting 6
2019-Nov-12 13:54 112 4 gusting 6
2019-Nov-12 13:42 111 3 gusting 4
2019-Nov-12 13:30 100 2 gusting 3
2019-Nov-12 13:24 115 3 gusting 4
2019-Nov-12 13:18 129 3 gusting 4
2019-Nov-12 13:12 109 0 gusting 2
2019-Nov-12 13:00 088 0 gusting 1
2019-Nov-12 12:54 107
2019-Nov-12 12:42 094
2019-Nov-12 12:30 069 1 gusting 2
2019-Nov-12 12:18 055 3 gusting 4
2019-Nov-12 12:12 067 1 gusting 2
2019-Nov-12 12:00 069 2 gusting 3
2019-Nov-12 11:48 045
2019-Nov-12 11:42 043 0 gusting 1
2019-Nov-12 11:36 061 0 gusting 1
2019-Nov-12 11:30 055 1 gusting 2
2019-Nov-12 11:24 044 1 gusting 2
2019-Nov-12 11:12 062 1 gusting 2
2019-Nov-12 11:06 052 1 gusting 2
2019-Nov-12 10:54 048 0 gusting 3
2019-Nov-12 10:48 062 2 gusting 3
2019-Nov-12 10:42 038 0 gusting 1
2019-Nov-12 10:30 053 0 gusting 1
2019-Nov-12 10:18 043 0 gusting 1
2019-Nov-12 10:06 062 2 gusting 3
2019-Nov-12 09:54 055 2 gusting 2
2019-Nov-12 09:48 055 1 gusting 2
2019-Nov-12 09:42 051 1 gusting 2
2019-Nov-12 09:36 059 1 gusting 2
2019-Nov-12 09:30 043 0 gusting 2
2019-Nov-12 09:18 039 0 gusting 1
2019-Nov-12 09:12 026 0 gusting 1
2019-Nov-12 09:06 030 0 gusting 1
2019-Nov-12 09:00 040 0 gusting 1
2019-Nov-12 08:54 041 0 gusting 2
2019-Nov-12 08:42 033 1 gusting 2
2019-Nov-12 08:30 025 1 gusting 2
2019-Nov-12 08:24 020 2 gusting 3
2019-Nov-12 08:18 021 1 gusting 2
2019-Nov-12 08:12 024 0 gusting 2
2019-Nov-12 08:06 020 1 gusting 2
2019-Nov-12 07:54 030 1 gusting 2
2019-Nov-12 07:42 042 0 gusting 1
2019-Nov-12 07:36 020 0 gusting 1
2019-Nov-12 07:30 018 0 gusting 1
2019-Nov-12 07:24 015 1 gusting 1
2019-Nov-12 07:12 022 0 gusting 1
2019-Nov-12 07:06 026 1 gusting 2
2019-Nov-12 07:00 003 1 gusting 2
2019-Nov-12 06:48 350 1 gusting 2
2019-Nov-12 06:42 013 1 gusting 3
2019-Nov-12 06:36 009 2 gusting 3
2019-Nov-12 06:30 024 1 gusting 2
2019-Nov-12 06:24 012 2 gusting 3
2019-Nov-12 06:18 009 1 gusting 2
2019-Nov-12 06:12 005 2 gusting 3
2019-Nov-12 06:06 004 1 gusting 2
2019-Nov-12 06:00 356 1 gusting 3